Weather History for Harlan, KY

Change the Weather History Date:

Monday, October 29, 2012

  Actual Average (KLOZ) Record (KLOZ)
Temperature  
Mean Temperature 36 °F 53 °F  
Max Temperature 39 °F 65 °F 80 °F (1971)
Min Temperature 33 °F 41 °F 19 °F (1976)
Degree Days  
Heating Degree Days 29 12  
Month to date heating degree days 236  
Since 1 July heating degree days 283  
Cooling Degree Days 0 0  
Month to date cooling degree days 17  
Year to date cooling degree days 1184  
Moisture  
Dew Point 34 °F    
Average Humidity 90    
Maximum Humidity 93    
Minimum Humidity 87    
Precipitation  
Precipitation 0.00 in 0.10 in 1.06 in (1970)
Month to date precipitation 2.81  
Year to date precipitation 38.86  
Sea Level Pressure  
Sea Level Pressure 29.86 in    
Wind  
Wind Speed 4 mph ()    
Max Wind Speed 14 mph    
Max Gust Speed 24 mph    
Visibility 6.4 miles    
Events      
T = Trace of Precipitation, MM = Missing Value Source: Averaged Metar Reports

Daily Weather History Graph

Daily Weather History Graph

Search for Another Location

Airport:

Trip Planner

Search our weather history database for the weather conditions in past years. The results will help you decide how hot, cold, wet, or windy it might be!

Date:

Astronomy

Oct. 29, 2012 Rise Set
Actual Time 7:54 AM EDT 6:38 PM EDT
Civil Twilight 7:28 AM EDT 7:05 PM EDT
Nautical Twilight 6:57 AM EDT 7:36 PM EDT
Astronomical Twilight 6:27 AM EDT 8:06 PM EDT
Moon 6:31 PM EDT (10/29) 7:43 AM EDT (10/29)
Length of Visible Light 11h 37m
Length of Day
10h 44m
Full, 100% of the Moon is Illuminated
Oct 29
Full
Oct 29
Full
Nov 6
Last Quarter
Nov 13
New
Nov 20
First Quarter

Hourly Weather History & Observations

Time (EDT) Temp. Windchill Dew Point Humidity Pressure Visibility Wind Dir Wind Speed Gust Speed Precip Events Conditions
12:15 AM 39.2 °F - 35.6 °F 87% 29.94 in 4.0 mi Calm Calm - N/A   Overcast
12:55 AM 37.4 °F - 35.6 °F 93% 29.94 in 5.0 mi Calm Calm - N/A   Overcast
1:15 AM 37.4 °F 33.8 °F 35.6 °F 93% 29.94 in 5.0 mi North 4.6 mph - N/A   Overcast
1:35 AM 37.4 °F 33.8 °F 33.8 °F 87% 29.94 in 5.0 mi NNW 4.6 mph - N/A   Overcast
1:55 AM 37.4 °F - 35.6 °F 93% 29.93 in 4.0 mi Calm Calm - N/A   Overcast
2:15 AM 37.4 °F - 35.6 °F 93% 29.93 in 4.0 mi Calm Calm - N/A   Overcast
2:35 AM 37.4 °F - 33.8 °F 87% 29.94 in 5.0 mi Calm Calm - N/A   Overcast
2:55 AM 37.4 °F 33.8 °F 33.8 °F 87% 29.93 in 5.0 mi West 4.6 mph - N/A   Overcast
3:15 AM 37.4 °F - 35.6 °F 93% 29.93 in 7.0 mi Calm Calm - N/A   Overcast
3:35 AM 37.4 °F - 33.8 °F 87% 29.92 in 7.0 mi Calm Calm - N/A   Overcast
3:55 AM 37.4 °F 33.8 °F 33.8 °F 87% 29.91 in 10.0 mi NW 4.6 mph - N/A   Overcast
4:15 AM 37.4 °F - 33.8 °F 87% 29.91 in 5.0 mi Calm Calm - N/A   Overcast
4:35 AM 37.4 °F - 33.8 °F 87% 29.91 in 5.0 mi Calm Calm - N/A   Overcast
4:55 AM 37.4 °F - 33.8 °F 87% 29.90 in 4.0 mi Calm Calm - N/A   Overcast
5:15 AM 37.4 °F - 33.8 °F 87% 29.91 in 5.0 mi Calm Calm - N/A   Overcast
5:55 AM 37.4 °F 33.8 °F 33.8 °F 87% 29.90 in 7.0 mi NW 4.6 mph - N/A   Overcast
6:55 AM 37.4 °F 32.8 °F 33.8 °F 87% 29.91 in 10.0 mi NW 5.8 mph 16.1 mph N/A   Overcast
7:15 AM 37.4 °F 33.8 °F 33.8 °F 87% 29.90 in 10.0 mi West 4.6 mph - N/A   Overcast
7:35 AM 37.4 °F 32.1 °F 33.8 °F 87% 29.90 in 10.0 mi WNW 6.9 mph - N/A   Overcast
7:55 AM 37.4 °F 33.8 °F 33.8 °F 87% 29.91 in 10.0 mi WNW 4.6 mph - N/A   Overcast
8:15 AM 35.6 °F 28.6 °F 33.8 °F 93% 29.91 in 5.0 mi West 9.2 mph - N/A   Overcast
8:35 AM 35.6 °F 28.0 °F 33.8 °F 93% 29.90 in 7.0 mi West 10.4 mph - N/A   Overcast
8:55 AM 35.6 °F 29.9 °F 33.8 °F 93% 29.90 in 7.0 mi WNW 6.9 mph - N/A   Overcast
9:15 AM 37.4 °F - 33.8 °F 87% 29.90 in 7.0 mi Calm Calm - N/A   Overcast
9:35 AM 37.4 °F 29.8 °F 33.8 °F 87% 29.90 in 10.0 mi WNW 11.5 mph - N/A   Overcast
9:55 AM 37.4 °F 31.4 °F 33.8 °F 87% 29.90 in 10.0 mi NW 8.1 mph - N/A   Overcast
10:15 AM 37.4 °F 31.4 °F 33.8 °F 87% 29.90 in 7.0 mi WNW 8.1 mph 20.7 mph N/A   Overcast
10:35 AM 35.6 °F 29.2 °F 33.8 °F 93% 29.90 in 4.0 mi WNW 8.1 mph - N/A   Overcast
10:55 AM 35.6 °F 28.6 °F 33.8 °F 93% 29.89 in 5.0 mi West 9.2 mph - N/A   Overcast
11:15 AM 35.6 °F 28.6 °F 33.8 °F 93% 29.88 in 4.0 mi West 9.2 mph 18.4 mph N/A   Overcast
11:35 AM 35.6 °F 31.7 °F 33.8 °F 93% 29.88 in 5.0 mi WNW 4.6 mph - N/A   Overcast
11:55 AM 35.6 °F 31.7 °F 33.8 °F 93% 29.89 in 7.0 mi WNW 4.6 mph 18.4 mph N/A   Overcast
12:15 PM 35.6 °F 28.6 °F 33.8 °F 93% 29.88 in 10.0 mi NW 9.2 mph 24.2 mph N/A   Overcast
12:35 PM 35.6 °F - 33.8 °F 93% 29.88 in 10.0 mi Calm Calm - N/A   Overcast
12:55 PM 35.6 °F 29.9 °F 33.8 °F 93% 29.87 in 7.0 mi West 6.9 mph 19.6 mph N/A   Overcast
1:35 PM 35.6 °F 29.2 °F 33.8 °F 93% 29.86 in 7.0 mi WSW 8.1 mph 16.1 mph N/A   Overcast
1:55 PM 35.6 °F 28.6 °F 33.8 °F 93% 29.85 in 7.0 mi West 9.2 mph - N/A   Overcast
2:15 PM 37.4 °F 30.3 °F 33.8 °F 87% 29.84 in 7.0 mi West 10.4 mph 17.3 mph N/A   Overcast
2:35 PM 37.4 °F 31.4 °F 33.8 °F 87% 29.84 in 7.0 mi West 8.1 mph - N/A   Overcast
2:55 PM 37.4 °F 32.1 °F 33.8 °F 87% 29.84 in 7.0 mi West 6.9 mph 18.4 mph N/A   Overcast
3:15 PM 37.4 °F 30.8 °F 33.8 °F 87% 29.83 in 7.0 mi West 9.2 mph - N/A   Overcast
3:35 PM 37.4 °F 32.1 °F 33.8 °F 87% 29.83 in 7.0 mi West 6.9 mph - N/A   Overcast
4:15 PM 37.4 °F 30.8 °F 33.8 °F 87% 29.82 in 5.0 mi West 9.2 mph 20.7 mph N/A   Overcast
4:35 PM 37.4 °F 31.4 °F 33.8 °F 87% 29.81 in 7.0 mi WSW 8.1 mph 17.3 mph N/A   Overcast
4:55 PM 37.4 °F 30.3 °F 33.8 °F 87% 29.81 in 7.0 mi West 10.4 mph - N/A   Overcast
5:15 PM 37.4 °F 31.4 °F 33.8 °F 87% 29.79 in 10.0 mi West 8.1 mph - N/A   Overcast
5:35 PM 37.4 °F 32.8 °F 33.8 °F 87% 29.79 in 7.0 mi West 5.8 mph - N/A   Overcast
5:55 PM 37.4 °F 29.3 °F 33.8 °F 87% 29.79 in 4.0 mi West 12.7 mph 18.4 mph N/A   Overcast
6:15 PM 37.4 °F 30.8 °F 33.8 °F 87% 29.79 in 4.0 mi West 9.2 mph 17.3 mph N/A   Overcast
6:35 PM 35.6 °F 29.2 °F 33.8 °F 93% 29.78 in 4.0 mi West 8.1 mph 17.3 mph N/A   Overcast
6:55 PM 35.6 °F 29.2 °F 33.8 °F 93% 29.77 in 5.0 mi West 8.1 mph - N/A   Overcast
7:15 PM 35.6 °F 28.6 °F 33.8 °F 93% 29.77 in 5.0 mi West 9.2 mph 24.2 mph N/A   Overcast
7:35 PM 35.6 °F 29.2 °F 33.8 °F 93% 29.77 in 4.0 mi West 8.1 mph 18.4 mph N/A   Overcast
7:55 PM 35.6 °F 28.6 °F 33.8 °F 93% 29.77 in 5.0 mi West 9.2 mph 17.3 mph N/A   Overcast
8:15 PM 35.6 °F 28.6 °F 33.8 °F 93% 29.76 in 7.0 mi West 9.2 mph 16.1 mph N/A   Overcast
8:35 PM 35.6 °F 26.6 °F 33.8 °F 93% 29.76 in 5.0 mi West 13.8 mph 21.9 mph N/A   Overcast
11:35 PM 33.8 °F 28.6 °F 32.0 °F 93% 29.72 in 5.0 mi West 5.8 mph - N/A   Overcast
11:55 PM 33.8 °F 26.4 °F 32.0 °F 93% 29.71 in 4.0 mi WSW 9.2 mph - N/A   Overcast